Regional Weather Roundup
Issued by NWS

Home | Current Version | Previous Version | Graphics & Text | Print | Product List | Glossary Off
Versions: 1 2 3 4 5 6 7 8 9 10 11 12 13 14 15 16 17 18 19 20 21 22 23 24 25 26 27 28 29 30 31 32 33 34 35 36 37 38 39 40 41 42 43 44 45 46 47 48 49 50

000
ASUS45 KBOU 282107
RWRCO

WEATHER ROUNDUP FOR COLORADO
NATIONAL WEATHER SERVICE DENVER/BOULDER CO
300 PM MDT THU MAY 28 2015

NOTE: "FAIR" INDICATES FEW OR NO CLOUDS BELOW 12000 FEET WITH NO
SIGNIFICANT WEATHER AND/OR OBSTRUCTIONS TO VISIBILITY.

COZ001>005-013-030-031-282200-
...NORTHWEST COLORADO...

CITY           SKY/WX    TMP DP  RH WIND       PRES   REMARKS
CRAIG          MOSUNNY   63  39  41 NW13      30.12F
HAYDEN         PTSUNNY   61  37  41 NW17      30.12S
MEEKER         CLOUDY    54  42  64 S16G25    30.14R THUNDER
MOUNT WERNER   NOT AVBL
STEAMBOAT SPGS PTSUNNY   60  35  38 S3        30.12F
WALDEN         MOSUNNY   55  30  38 SW7       30.16F
$$

COZ006>008-011-282200-
...WEST CENTRAL VALLEYS...

CITY           SKY/WX    TMP DP  RH WIND       PRES   REMARKS
GRAND JUNCTION MOSUNNY   71  39  31 W9        30.03F
MONTROSE       MOSUNNY   72  37  28 W9        30.08F
EAGLE          MOSUNNY   66  37  34 S14       30.12S
RIFLE          PTSUNNY   67  43  41 NW15      30.09R
DELTA          MOSUNNY   78  33  19 W10G17    30.04F
NUCLA          PTSUNNY   72  30  21 SW15G28   30.13S
$$

COZ017>023-064>068-282200-
...SOUTHWEST COLORADO...

CITY           SKY/WX    TMP DP  RH WIND       PRES   REMARKS
DURANGO        MOSUNNY   71  37  28 W14       30.12F
CORTEZ         SUNNY     77  31  18 W20G26    30.09F
PAGOSA SPRINGS PTSUNNY   64  27  24 W15G30    30.19S
TELLURIDE      MOSUNNY   60  26  27 W3        30.27F
WOLF CREEK PAS NOT AVBL
$$

COZ009-010-012-014-032>034-037-058>063-282200-
...CENTRAL COLORADO...

CITY           SKY/WX    TMP DP  RH WIND       PRES   REMARKS
ASPEN          LGT RAIN  56  34  43 NE12      30.18F
BUENA VISTA    MOSUNNY   62  26  25 NW8G18    30.14F
COPPER MTN     PTSUNNY   45  23  42 SW13G24   30.38R
BERTHOUD PASS  FAIR      34  28  80 W20G32    30.38F WCI  22
COTTONWOOD PAS CLOUDY    55  23  28 NE5       30.24F
GUNNISON       MOSUNNY   64  28  25 W21G26    30.18F
KREMMLING      PTSUNNY   59  32  36 W8G22     30.14S THUNDER
LEADVILLE      MOSUNNY   53  25  33 MISG      30.24F
MONARCH PASS   PTSUNNY   41  23  48 W52G59    30.44F HAZE
SALIDA         PTSUNNY   63  39  40 S13G21    30.19F
SUNLIGHT       PTSUNNY   46  32  57 CALM      30.35F THUNDER
WILKERSON PASS PTSUNNY   52  21  30 SW13G21   30.33S
$$

COZ069>075-282200-
...SAN LUIS VALLEY/SANGRE DE CRISTO MOUNTAINS...

CITY           SKY/WX    TMP DP  RH WIND       PRES   REMARKS
ALAMOSA        PTSUNNY   68  30  24 NW14G26   30.12F
LA VETA PASS   PTSUNNY  N/A N/A N/A MISG      30.27F
SAGUACHE       PTSUNNY   61  39  44 S14       30.18F
$$

COZ035-036-038>040-282200-
...NORTHERN COLORADO FRONT RANGE...

CITY           SKY/WX    TMP DP  RH WIND       PRES   REMARKS
DENVER INTL AP CLOUDY    67  47  48 SE3       30.00F
DMNS CITY PARK   N/A     74  39  29 N6G18     29.98S
AURORA         PTSUNNY   64  48  55 NE5       30.02F
FRONT RANGE AP PTSUNNY   68  46  45 NW3       30.02F
ERIE MUNI ARPT LGT RAIN  66  50  56 S6        29.97F
BOULDER MUN AP PTSUNNY   72  43  35 SE8       29.98F
CENTENNIAL     PTSUNNY   70  38  31 VRB5      30.01F
BROOMFIELD     PTSUNNY   66  48  52 CALM      30.01F
FORT COLLINS   MOSUNNY   75  45  33 NE13      29.97F
LONGMONT       MOSUNNY   73  44  34 SE12G17   29.99R
$$

COZ041-046-047-076>085-087-088-282200-
...PIKES PEAK/PALMER DIVIDE AND SOUTHERN FOOTHILLS...

CITY           SKY/WX    TMP DP  RH WIND       PRES   REMARKS
COLO. SPRINGS  CLOUDY    70  39  32 VRB7G16   30.03F
A. F. ACADEMY  PTSUNNY   66  32  28 SW14      30.03F
ELLICOTT       CLOUDY   N/A N/A N/A N18G25    30.02S
FALCON         CLOUDY    62  36  37 S55G104   30.07F
FORT CARSON    PTSUNNY   72  38  29 N16       29.99F
LIMON          CLOUDY    65  53  65 CALM      29.98F
MONUMENT HILL  CLOUDY    59  43  55 W16       30.09R
TRINIDAD       PTSUNNY   71  40  32 S7        30.01F
$$

COZ042>045-048>051-090-091-282200-
...NORTHEAST COLORADO...

CITY           SKY/WX    TMP DP  RH WIND       PRES   REMARKS
GREELEY ARPT   PTSUNNY   72  43  35 NE10      29.97F
AKRON          PTSUNNY   71  54  54 E10       29.95F
BURLINGTON     MOSUNNY   74  56  53 SE20      29.92F
WRAY           MOSUNNY   79  57  46 E10       29.91F
STERLING       CLOUDY    54  50  87 NW12      29.89F
HOLYOKE        MOSUNNY   79  57  47 SE7       29.93F
FORT MORGAN    PTSUNNY   68  44  42 N17G23    29.99R
$$

COZ086-089-092>099-282200-
...SOUTHEAST COLORADO...

CITY           SKY/WX    TMP DP  RH WIND       PRES   REMARKS
PUEBLO         PTSUNNY   77  38  24 S7        29.93F
LA JUNTA       PTSUNNY   78  48  34 S7        29.92F
LAMAR          CLOUDY    78  51  38 S26G41    29.87F HAZE
SPRINGFIELD      N/A     68  59  73 W3        29.97F
$$


USA.gov is the U.S. government's official web portal to all federal, state and local government web resources and services.